Weather Roundup
Issued by NWS Chicago, IL

Home | Current Version | Previous Version | Text Only | Print | Product List | Glossary On
Versions: 1 2 3 4 5 6 7 8 9 10 11 12 13 14 15 16 17 18 19 20 21 22 23 24 25 26 27 28 29 30 31 32 33 34 35 36 37 38 39 40 41 42 43 44 45 46 47 48 49 50
000
NZUS59 KLOT 231209
HRRLOT

CHICAGO AREA WEATHER ROUNDUP
NATIONAL WEATHER SERVICE CHICAGO/ROMEOVILLE IL
700 AM CDT FRI JUN 23 2017

NOTE: "FAIR" INDICATES FEW OR NO CLOUDS BELOW 12,000 FEET WITH NO
SIGNIFICANT WEATHER AND/OR OBSTRUCTIONS TO VISIBILITY.

* THESE STATIONS ARE NOT UNDER NWS QUALITY CONTROL. THEY ALSO MAY NOT
  REPORT WEATHER SUCH AS PRECIPITATION OR FOG.

ILZ005-006-012>014-019>023-231300-
NORTHEAST ILLINOIS

CITY           SKY/WX    TMP DP  RH WIND       PRES   REMARKS
OHARE          CLOUDY    68  65  90 NW5       29.67R
6HR MIN TEMP:  68; 6HR MAX TEMP:  77; 6HR PCP:  0.71;

MIDWAY         LGT RAIN  69  66  90 W5        29.68R
6HR MIN TEMP:  68; 6HR MAX TEMP:  77;

AURORA         LGT RAIN  68  67  96 NW6       29.70R
6HR MIN TEMP:  68; 6HR MAX TEMP:  76; 6HR PCP:  0.37;

LANSING*       RAIN      67  65  93 CALM      29.67F
JOLIET*        LGT RAIN  69  69  98 CALM      29.69S
WAUKEGAN       CLOUDY    65  64  97 VRB3      29.66S
6HR MIN TEMP:  65; 6HR MAX TEMP:  75; 6HR PCP:  0.81;

DUPAGE AIRPORT CLOUDY    67  67 100 CALM      29.68R
6HR MIN TEMP:  66; 6HR MAX TEMP:  75; 6HR PCP:  0.48;

WHEELING       LGT RAIN  67  67 100 VRB6      29.68R
6HR MIN TEMP:  66; 6HR MAX TEMP:  76; 6HR PCP:  1.06;

MORRIS*        PTSUNNY   68  66  94 CALM      29.67S
LEWIS AIRPORT* LGT RAIN  67  65  91 NW6       29.69R
NORTHERLY ISL    N/A     63  61  93 CALM        N/A
$$

WIZ051-052-058>065-066-070>072-231300-
SOUTHEAST WISCONSIN

CITY           SKY/WX    TMP DP  RH WIND       PRES   REMARKS
MILWAUKEE      CLOUDY    67  65  93 NW5       29.66F
6HR MIN TEMP:  65; 6HR MAX TEMP:  67; 6HR PCP:  1.42;

KENOSHA*       CLOUDY    65  63  93 N3        29.66F
RACINE*        CLOUDY    65  63  93 N6        29.67F
WAUKESHA       MOSUNNY   63  61  94 NW6       29.65S
WEST BEND      PTSUNNY   63  61  94 NW8       29.67F
$$

INZ001>003-010>013-019-020-231300-
NORTHWEST INDIANA

CITY           SKY/WX    TMP DP  RH WIND       PRES   REMARKS
GARY*          LGT RAIN  68  64  88 CALM      29.67F
MICHIGAN CITY* NOT AVBL
RENSSELAER*    NOT AVBL
VALPARAISO     HVY RAIN  67  66  97 N7G20     29.69R VSB 3/4
$$

LMZ740>746-231300-
SOUTHERN LAKE MICHIGAN

STATION/POSITION TIME  SKY/WX   TEMP WIND        PRES    VSBY
                                AIR  DIR/SP/G
                 (UTC)          (F)  (DEG/KT/KT) (MB)    (MI)
HARRISON CRIB    1140            66   20/  8/  8   N/A
BURNHAM HARBOR   1200            64                N/A
CALUMET HARBOR   1136            65   60/  4/  4 1004.2F
BURNS HARBOR     1140            66  340/  3/ 10 1005.8R
MICHIGAN CITY    1140            65  280/  3/  4   N/A
$$

ABBREVIATIONS USED IN REMARKS
   TC - TEMPERATURE IN CELSIUS
  WCI - WIND CHILL INDEX
   HX - HEAT INDEX
  VSB - VISIBILITY
$$




USA.gov is the U.S. government's official web portal to all federal, state and local government web resources and services.